Location: ???
(41.4428°N, 22.5199°E)
Time: 08:03:10
(UTC+00:00)

Daily predictions for brighter satellites

Satellite Brightness Start Highest point End
(mag) Time Altitude Azimuth Time Altitude Azimuth Time Altitude Azimuth
ATLAS 3B R/B 4.1 15:19:29 10° NW 15:26:28 49° WSW 15:33:39 10° S
SL-08 R/B 3.7 15:23:37 10° N 15:28:21 70° WNW 15:32:59 10° SSW
Cosmos 1777 Rocket 4.0 15:24:47 10° NNW 15:30:05 84° ENE 15:35:23 10° SSE
CZ-4B R/B 4.3 15:27:01 10° ESE 15:31:02 21° ENE 15:35:00 10° NNE
Iridium 2 3.6 15:28:44 10° N 15:32:31 76° E 15:36:14 10° S
ARGOS 4.4 15:32:07 10° ESE 15:35:44 18° ENE 15:39:21 10° NNE
H-2A R/B 2.8 15:33:32 10° SE 15:38:00 29° ENE 15:42:23 10° N
SMAP 3.2 15:33:31 10° SSE 15:38:02 54° ENE 15:42:35 10° N
Meteor PRIRODA 3.8 15:34:51 10° S 15:38:29 79° WSW 15:42:09 10° NNW
USA 307 4.2 15:35:31 10° W 15:39:20 31° NNW 15:43:11 10° NE
COSMOS 2455 4.5 15:36:26 10° SE 15:39:23 14° ESE 15:42:21 10° ENE
Cosmos 1939 Rocket 3.0 15:35:46 10° SSE 15:39:49 59° ENE 15:43:53 10° N
Cosmos 1766 Rocket 4.0 15:38:14 10° NNW 15:42:33 68° W 15:46:53 10° S
FengYun 1-2 T 4.2 15:36:59 10° SSE 15:42:36 77° ENE 15:48:10 10° N
Cosmos 1606 2.6 15:38:57 10° S 15:42:42 89° E 15:46:29 10° N
Cosmos 1862 3.7 15:39:18 10° NNW 15:43:16 67° W 15:47:14 10° S
ERBS 3.2 15:40:23 10° WSW 15:43:25 39° NW 15:46:27 10° NNE
ATLAS CENTAUR R/B 3.4 15:44:17 10° W 15:47:38 24° NW 15:51:12 10° N
Cosmos 2221 2.4 15:43:47 10° S 15:48:02 82° E 15:52:20 10° N
Cosmos 44 3.7 15:45:53 10° NNW 15:50:21 37° NE 15:54:33 10° ESE
Meteor 2-19 Rocket 4.4 15:49:53 10° N 15:55:58 77° E 16:02:04 10° SSE
COSMO-SKYMED 1 3.5 15:52:58 10° NE 15:56:41 27° E 16:00:22 10° SSE
deb Chang Zheng 4 4.4 15:54:49 10° SE 15:58:26 27° ENE 16:02:05 10° N
CZ-2C R/B 3.3 15:54:05 10° NNE 15:58:46 32° E 16:03:20 10° SSE
CZ-4C R/B 4.2 15:55:59 10° NNW 16:00:50 19° NNE 16:04:34 14° ENE
Okean O Rocket 2.6 15:58:30 10° ESE 16:02:09 26° ENE 16:05:48 10° NNE
Meteor 1-25 Rocket 4.5 15:57:25 10° N 16:02:42 43° ENE 16:07:59 10° SSE
MOS 1-B 4.4 16:02:34 10° SSE 16:08:12 59° ENE 16:13:53 10° N
ISS -1.5 16:08:42 10° NW 16:10:42 15° N 16:11:56 13° NNE
NOAA 6 4.3 16:06:25 10° S 16:11:33 72° WSW 16:16:42 10° NNW
GEOS 3 Rocket 4.1 16:15:44 13° ESE 16:19:56 38° NE 16:24:41 10° NNW
Cosmos 1408 Rocket 4.3 16:17:10 10° NNW 16:21:25 55° W 16:25:40 10° S
Cosmos 2084 4.3 16:17:58 10° NNW 16:21:48 30° NE 16:23:06 26° ENE
Cosmos 1782 3.2 16:21:02 10° SSE 16:24:48 41° E 16:26:58 22° NE
Cosmos 1743 Rocket 3.4 16:21:31 10° N 16:25:52 85° E 16:30:11 10° S
Cosmos 1763 Rocket 3.3 16:21:08 10° SSW 16:26:11 82° ESE 16:31:15 10° NNE
Cosmos 1697 Rocket 3.0 16:21:07 10° NNW 16:26:29 43° ENE 16:31:47 10° SE
CZ-4C R/B 4.4 16:27:46 20° SE 16:27:46 20° SE 16:29:20 10° SSE
USA 267 4.5 16:21:33 11° NE 16:26:45 31° NNW 16:32:17 10° WNW
Cosmos 841 Rocket 4.0 16:23:10 10° SSE 16:27:51 36° ESE 16:30:01 25° ENE
Cosmos 1980 Rocket 3.2 16:23:36 10° N 16:28:13 25° NE 16:28:50 24° ENE
Cosmos 1937 Rocket 4.0 16:23:34 10° N 16:28:31 38° ENE 16:33:28 10° SE
Nadezhda 4 Rocket 4.4 16:23:03 10° NNW 16:29:18 68° W 16:35:34 10° S
Lacrosse 5 3.9 16:25:43 10° WNW 16:30:07 30° WSW 16:34:30 10° S
Meteor 2-14 Rocket 4.5 16:25:22 10° N 16:31:22 55° ENE 16:37:17 10° SSE
Cosmos 1656 3.7 16:27:10 10° NNW 16:32:45 86° WSW 16:38:20 10° SSE
Cosmos 2082 Rocket 2.8 16:29:55 10° SSE 16:35:00 34° ESE 16:36:39 29° ENE
Cosmos 1812 3.9 16:33:39 10° SSE 16:35:53 26° SE 16:35:53 26° SE
Cosmos 1340 Rocket 3.6 16:34:29 10° NNW 16:38:27 55° W 16:42:25 10° S
Cosmos 1092 Rocket 4.0 16:33:17 10° N 16:39:41 86° E 16:46:01 10° S
COSMOS 2406 3.2 16:34:27 10° S 16:40:08 65° ESE 16:43:56 22° NNE
Cosmos 1809 Rocket 4.3 16:34:42 10° N 16:40:49 78° E 16:46:53 10° SSE
USA 229 DEB 3.9 16:34:22 10° NNW 16:41:41 63° NE 16:49:26 10° SE
USA 229 3.9 16:34:28 10° NNW 16:41:47 62° NE 16:49:31 10° SE
Cosmos 990 Rocket 4.0 16:38:49 10° NNW 16:44:03 84° WSW 16:49:12 10° SSE
Cosmos 1151 Rocket 3.6 16:40:40 10° SSE 16:43:59 35° ESE 16:43:59 35° ESE
SKYMED 2 3.5 16:40:36 10° NNE 16:44:53 88° WNW 16:49:14 10° SSW
Feng Yun 1-1 Rocket 4.5 16:41:07 10° SE 16:46:49 50° ENE 16:52:30 10° N
Cosmos 1933 3.7 16:43:05 10° SSW 16:47:07 64° W 16:51:09 10° N
Meteor 2-21 Rocket 4.4 16:41:33 10° N 16:47:33 55° ENE 16:53:28 10° SSE
ATLAS CENTAUR R/B 3.2 16:37:48 10° SW 16:48:23 68° NW 16:50:58 28° NNE
USA 276 3.6 16:45:53 10° NW 16:47:51 27° NNW 16:47:51 27° NNW
Cosmos 1602 3.7 16:44:58 10° N 16:48:49 84° W 16:52:39 10° S
Cosmos 2142 Rocket 4.4 16:45:01 10° S 16:51:00 59° E 16:57:03 10° NNE
Cosmos 1428 Rocket 4.4 16:46:06 10° N 16:52:15 88° W 16:58:24 10° S
SJ 16-02 4.4 16:49:28 10° NW 16:52:17 17° W 16:55:07 10° SW
Meteor 1-26 Rocket 4.3 16:49:09 10° S 16:55:02 88° E 17:01:06 10° N
Cosmos 372 Rocket 4.4 16:50:45 10° N 16:55:12 40° NE 16:55:12 40° NE
Cosmos 1627 Rocket 4.5 16:51:09 10° N 16:57:22 82° W 17:03:28 10° S
Cosmos 858 Rocket 4.4 16:52:53 10° NNW 16:58:09 64° ENE 17:01:49 20° SE
NOSS 3-1 (A) 4.1 16:57:29 10° NW 17:05:13 88° NE 17:14:09 10° SSE
Cosmos 1805 Rocket 4.3 17:02:53 10° NNW 17:07:07 53° W 17:11:19 10° S
Cosmos 1833 Rocket 3.2 17:02:30 10° SW 17:08:01 58° WNW 17:11:51 20° N
Cosmos 2279 Rocket 3.8 17:03:03 10° S 17:09:15 78° E 17:15:28 10° N
CZ-4B R/B 3.9 17:05:50 10° S 17:11:11 54° W 17:16:29 10° NNW
Cosmos 2360 4.1 17:07:17 10° NNW 17:13:04 89° WSW 17:18:11 13° SSE
Cosmos 1814 Rocket 4.1 17:09:45 10° S 17:14:17 55° SE 17:14:17 55° SE
ARGOS 3.6 17:10:06 10° S 17:15:28 63° W 17:20:51 10° NNW
Meteor 1-14 Rocket 4.1 17:10:42 10° N 17:16:30 77° E 17:22:23 10° SSE
NOSS 2-2 (E) 4.5 17:11:36 10° NNW 17:17:04 61° NE 17:18:12 54° E
H-2A R/B 3.7 17:12:31 10° SSW 17:17:18 35° W 17:22:00 10° NNW
Sich 1 3.8 17:14:09 10° NNW 17:18:18 51° W 17:22:27 10° S
GPS 2-04 Rocket1 4.2 17:17:50 10° WSW 17:20:43 30° SSW 17:20:43 30° SSW
Cosmos 1898 Rocket 4.3 17:17:35 10° NNW 17:22:40 51° WSW 17:27:41 10° S
DMSP 5D-2 F-14 4.5 17:18:09 10° SSE 17:23:37 79° ENE 17:29:04 10° NNW
COSMOS 2455 2.8 17:18:26 10° SSW 17:24:27 87° WNW 17:25:52 56° NNE
SL-08 RB Rocket 4.4 17:29:01 10° S 17:33:34 53° W 17:38:07 10° NNW
Meteor 2-16 Rocket 4.5 17:28:13 10° N 17:34:19 76° W 17:40:25 10° S
Okean O Rocket 3.5 17:34:27 10° SSW 17:38:21 30° W 17:42:18 10° NW
CZ-2C R/B 4.2 17:34:26 10° N 17:38:58 31° WNW 17:43:27 10° SW
CZ-4C R/B 3.1 17:43:36 10° NNW 17:49:48 56° NNE 17:49:48 56° NNE
Cosmos 2369 4.4 17:56:44 10° NW 18:02:15 50° WSW 18:02:24 49° WSW
Cosmos 1980 Rocket 3.4 18:07:01 10° NNW 18:10:40 37° WNW 18:10:40 37° WNW
Cosmos 2082 Rocket 3.6 18:13:50 10° WSW 18:18:33 35° WNW 18:18:33 35° WNW
